Satellite: IDEFIX/ARIANE 
Catalog number: 27422
Epoch time:      103012.95588494
Element set:     209 
Inclination:       98.6998 deg
RA of node:        92.3172 deg
Eccentricity:    0.0011789
Arg of perigee:   254.7578 deg
Mean anomaly:     105.2299 deg
Mean motion:   14.27947473 rev/day
Decay rate:    2.7500E-006 rev/day^2
Epoch rev:            3623
Checksum:              347

Satellite: NOAA 17
Catalog number: 27453
Epoch time:      103012.93944206
Element set:     266 
Inclination:       98.7619 deg
RA of node:        84.3324 deg
Eccentricity:    0.0012611
Arg of perigee:   102.3250 deg
Mean anomaly:     257.9340 deg
Mean motion:   14.23268876 rev/day
Decay rate:    2.9499E-006 rev/day^2
Epoch rev:            2875
Checksum:              320

Satellite: HOT BIRD 6
Catalog number: 27499
Epoch time:      102364.09542247
Element set:     64 
Inclination:        0.0040 deg
RA of node:         8.7196 deg
Eccentricity:    0.0011180
Arg of perigee:   225.2390 deg
Mean anomaly:     271.8102 deg
Mean motion:    1.00272778 rev/day
Decay rate:    9.5000E-007 rev/day^2
Epoch rev:             132
Checksum:              254

Satellite: RUBIN 2
Catalog number: 27605
Epoch time:      103013.21756886
Element set:     28 
Inclination:       64.5539 deg
RA of node:       307.6211 deg
Eccentricity:    0.0031016
Arg of perigee:   126.4289 deg
Mean anomaly:     233.9678 deg
Mean motion:   14.71367927 rev/day
Decay rate:    8.3499E-006 rev/day^2
Epoch rev:             346
Checksum:              322


Read previous mail | Read next mail


 15.09.2025 22:00:45lGo back Go up